Location: Neum�nster
(54.0667°N, 9.9833°E)
Time: 09:57:30
(UTC+02:00)

Daily predictions for brighter satellites

Satellite Brightness Start Highest point End
(mag) Time Altitude Azimuth Time Altitude Azimuth Time Altitude Azimuth
ASTEX 1 4.0 18:53:48 10° NNE 18:58:18 34° E 19:02:47 10° SSE
Cosmos 1758 Rocket 3.6 18:53:57 10° N 18:58:21 61° ENE 19:02:46 10° SSE
Timation 1 Rocket 4.4 18:52:37 10° SSW 18:58:32 69° ESE 19:04:28 10° NE
Cosmos 1470 3.0 18:55:19 10° SSE 18:59:09 47° E 19:03:00 10° NNE
Unknown 4.0 18:56:54 10° SW 19:00:26 41° SSE 19:03:59 10° E
Cosmos 1302 Rocket 4.1 18:55:30 10° S 19:00:37 61° ESE 19:05:47 10° NNE
Unknown 3.2 19:01:21 10° WSW 19:04:45 67° S 19:08:09 10° E
Ariane Rocket 3.8 19:00:18 10° ESE 19:04:47 32° ENE 19:09:17 10° N
Cosmos 1503 Rocket 4.0 19:01:54 10° NNW 19:07:08 80° ENE 19:12:18 10° SSE
CZ-4C R/B 3.4 19:02:37 10° NW 19:09:30 66° SW 19:17:28 10° SSE
Cosmos 839 Rocket 4.1 19:04:09 10° NW 19:10:18 66° NE 19:16:50 10° ESE
Cosmos 1733 3.6 19:06:43 10° SSW 19:10:33 69° WNW 19:14:27 10° N
Cosmos 332 Rocket 3.8 19:07:05 10° SSW 19:11:56 85° ESE 19:16:50 10° NNE
Falcon 9 debris 3.2 19:08:41 10° WSW 19:12:07 69° S 19:15:25 11° E
SKYMED 2 4.0 19:07:58 10° NNE 19:12:08 42° E 19:16:15 10° S
Unknown 3.3 19:09:40 10° WSW 19:13:10 67° S 19:16:29 11° E
GP-B 4.2 19:09:10 10° N 19:13:29 50° W 19:17:45 10° SSW
YAOGAN 6 2.6 19:10:16 10° SSE 19:13:54 62° ENE 19:17:32 10° N
Cosmos 1607 4.0 19:11:16 10° SW 19:17:27 85° NW 19:23:40 10° NE
ATLAS 5 CENTAUR R/B 2.3 19:16:31 10° S 19:20:29 36° ESE 19:24:56 10° ENE
YAOGAN 1 2.5 19:18:28 10° SSE 19:22:46 68° ENE 19:27:06 10° N
H-2A R/B 3.5 19:19:01 10° E 19:22:46 20° NE 19:26:37 10° N
Unknown 3.0 19:23:55 10° W 19:27:01 70° S 19:29:30 15° ESE
SL-4 R/B 3.4 19:23:59 10° W 19:27:28 30° SSW 19:30:44 10° SE
Gbstr 26 Del rocket 4.1 19:22:41 10° W 19:28:28 74° S 19:34:51 13° E
Cosmos 2263 Rocket 2.9 19:28:08 10° SW 19:33:43 58° NW 19:39:18 10° NNE
USA 186 3.6 19:35:00 12° NE 19:35:00 12° NE 19:35:33 10° NE
EO 1 Delta rocket 3.9 19:29:55 10° SSE 19:34:27 58° ENE 19:39:14 10° N
Okean-O 4.3 19:30:47 10° SSW 19:34:55 38° W 19:39:06 10° NNW
CSL-04 Rocket 3.7 19:29:29 10° SSE 19:35:03 89° ENE 19:40:36 10° NNW
Cosmos 2239 Rocket 4.5 19:29:12 10° N 19:35:25 89° E 19:41:34 10° S
NOAA 11 4.2 19:30:12 10° SE 19:35:32 59° ENE 19:40:53 10° N
Cosmos 1271 Rocket 2.9 19:32:03 10° NNW 19:36:00 82° W 19:39:58 10° S
CZ-2D R/B 3.4 19:32:59 10° SSE 19:36:44 53° ENE 19:40:31 10° N
Cosmos 1461 3.6 19:33:14 10° NW 19:36:57 35° NNE 19:39:33 17° E
Cosmos 1726 Rocket 3.6 19:33:50 10° S 19:38:07 54° E 19:42:25 10° NNE
HJ-1C 4.0 19:37:10 10° SE 19:40:16 34° ENE 19:43:23 10° N
BREEZE M DEB (TANK) 3.3 19:38:54 10° WSW 19:40:56 26° S 19:44:18 11° SE
Cosmos 1605 Rocket 4.1 19:34:57 10° N 19:41:06 54° ENE 19:47:08 10° SSE
Cosmos 1821 Rocket 4.1 19:35:04 10° NNW 19:41:11 78° W 19:47:18 10° S
Cosmos 724 4.4 19:35:47 10° SSW 19:41:50 64° SE 19:47:47 10° NE
FREGAT/IRIS 3.8 19:43:06 21° ENE 19:43:16 21° ENE 19:45:31 10° NNE
Lacrosse 5 2.0 19:39:15 10° WNW 19:44:19 67° N 19:47:59 19° E
Unknown 4.3 19:40:47 10° SW 19:44:33 38° SSE 19:46:49 20° E
Cosmos 2058 Rocket 3.3 19:41:12 10° SSE 19:45:20 44° E 19:49:29 10° NNE
Cosmos 1953 2.3 19:41:18 10° S 19:45:22 88° ESE 19:49:29 10° NNE
Cosmos 1833 Rocket 3.0 19:40:01 10° NNW 19:45:27 46° NE 19:49:44 16° ESE
Cosmos 1703 3.3 19:44:24 10° N 19:48:21 60° ENE 19:52:14 10° SSE
COBE Rocket 4.2 19:44:34 10° NNE 19:49:47 79° WNW 19:54:56 10° SSW
Cosmos 1758 4.2 19:46:25 10° SSW 19:50:19 52° WNW 19:54:14 10° N
SJ-6B 3.9 19:49:22 21° E 19:50:26 24° ENE 19:53:32 10° N
Unknown 4.4 19:47:45 10° SW 19:51:32 35° SSE 19:53:28 23° ESE
Unknown 4.4 19:47:49 10° SW 19:51:37 35° SSE 19:53:32 23° ESE
Nadezhda 3 Rocket 4.1 19:46:04 10° S 19:52:21 87° W 19:58:45 10° N
Unknown 4.4 19:48:37 10° SW 19:52:24 35° SSE 19:54:18 23° ESE
IRS-1A Rocket 4.2 19:47:47 10° SSE 19:53:13 64° ENE 19:58:41 10° NNW
Cosmos 2228 2.9 19:50:53 10° S 19:55:16 82° E 19:59:40 10° NNE
ARGOS 4.0 19:52:57 19° ESE 19:55:51 31° ENE 20:00:33 10° N
COSMOS 2406 3.2 19:50:18 10° NNW 19:56:07 88° NE 20:01:54 10° SSE
MOS 1 4.4 19:50:59 10° SE 19:56:29 55° ENE 20:02:00 10° N
Unknown 4.3 19:52:41 10° SW 19:56:31 37° SSE 19:58:16 25° ESE
Unknown 4.3 19:52:42 10° SW 19:56:31 37° SSE 19:58:16 25° ESE
Cosmos 2227 Rocket 4.5 19:53:08 10° WNW 19:56:49 17° NNW 20:00:30 10° NNE
Cosmos 1934 Rocket 4.1 19:51:31 10° NNW 19:57:51 88° W 20:04:13 10° S
MONITOR-E 4.3 19:57:26 34° ESE 19:58:08 41° ENE 20:00:49 10° N
Unknown 4.3 19:54:24 10° SW 19:58:15 38° SSE 19:59:59 26° ESE
Resurs 01 Rocket 3.2 19:58:05 17° ENE 19:58:27 17° NE 20:01:22 10° NNE
COSMO-SKYMED 1 2.8 19:55:59 10° NNE 20:00:21 74° WNW 20:04:41 10° SSW
Cosmos 2082 Rocket 2.6 19:55:18 10° NNW 20:00:48 44° NE 20:04:05 22° ESE
Envisat 4.5 19:56:23 10° SSW 20:01:09 40° W 20:05:58 10° NNW
Unknown 4.2 19:57:40 10° SW 20:01:33 40° SSE 20:03:10 27° ESE
Unknown 4.2 19:58:19 10° SW 20:02:12 39° SSE 20:03:45 28° ESE
Cosmos 2297 Rocket 4.5 19:59:37 10° NW 20:03:07 16° NNW 20:06:38 10° NNE
Unknown 4.2 19:59:16 10° SW 20:03:09 39° SSE 20:04:40 28° ESE
Meteor 1-11 4.2 19:57:25 10° NNW 20:03:10 78° ENE 20:08:58 10° SSE
Cosmos 1726 2.0 20:01:24 10° S 20:05:00 57° E 20:08:36 10° NNE
Cosmos 304 Rocket 4.2 20:00:57 10° SW 20:05:43 64° WNW 20:10:32 10° NNE
Unknown 4.2 20:02:27 10° SW 20:06:21 40° SSE 20:07:45 30° ESE
Cosmos 1939 Rocket 2.8 20:02:54 10° SSE 20:06:53 86° W 20:10:57 10° NNW
ATLAS CENTAUR R/B 3.5 20:03:23 10° WNW 20:07:14 23° N 20:10:28 12° NE
Cosmos 921 Rocket 3.1 20:03:13 10° S 20:07:38 58° ESE 20:12:03 10° NNE
Cosmos 292 Rocket 4.2 20:03:45 10° S 20:08:07 38° ESE 20:12:31 10° NE
Unknown 4.1 20:05:49 10° SW 20:09:44 42° SSE 20:11:03 32° ESE
Unknown 4.1 20:07:27 10° SW 20:11:23 43° SSE 20:12:38 33° ESE
Unknown 4.1 20:09:09 10° SW 20:13:05 44° SSE 20:14:17 34° ESE
Lacrosse 5 rocket 3.2 20:11:16 10° W 20:14:21 24° SW 20:17:33 10° SSE
Unknown 4.1 20:10:47 10° SW 20:14:44 44° SSE 20:15:52 35° ESE
Cosmos 1356 3.3 20:11:51 10° S 20:15:14 63° E 20:18:41 10° NNE
USA 116 3.4 20:13:20 10° N 20:16:27 68° WNW 20:19:35 10° SSW
SJ 16-02 3.0 20:14:23 10° N 20:17:30 18° NE 20:17:39 18° NE
Unknown 4.0 20:14:03 10° SW 20:18:01 46° SSE 20:19:02 37° ESE
Cosmos 2100 Rocket 4.2 20:13:38 10° N 20:19:38 46° ENE 20:23:03 24° SE
Unknown 4.0 20:15:44 10° SW 20:19:43 47° SSE 20:20:40 38° ESE
Unknown 4.0 20:17:21 10° SW 20:21:21 47° SSE 20:22:15 40° ESE
Cosmos 2084 3.6 20:17:58 10° SSW 20:22:24 57° SE 20:24:06 34° ENE
Unknown 4.0 20:18:58 10° SW 20:22:57 47° SSE 20:23:47 41° ESE
Unknown 3.9 20:19:36 10° SW 20:23:36 48° SSE 20:24:25 41° ESE
CZ-4 R/B 3.7 20:20:34 10° SSW 20:24:08 27° W 20:27:47 10° NW
Resurs 1-3 4.4 20:24:47 31° ENE 20:24:51 31° ENE 20:28:44 10° N
FALCON 9 DEB 3.1 20:22:22 10° W 20:25:51 74° S 20:26:23 59° SE
Cosmos 1242 Rocket 3.8 20:22:23 10° NNW 20:25:54 42° W 20:29:24 10° SSW
Unknown 3.9 20:22:09 10° SW 20:26:08 47° SSE 20:26:48 43° SE
Unknown 3.1 20:22:56 10° W 20:26:28 75° S 20:27:00 59° ESE
Meteor 1-16 Rocket 4.3 20:23:23 10° SSW 20:28:58 79° WNW 20:34:26 10° NNE
ADEOS Rocket 3.9 20:21:47 10° NNE 20:29:01 40° E 20:35:57 10° SSE
Unknown 3.9 20:25:29 10° SW 20:29:28 49° SSE 20:30:02 45° SE
Unknown 3.8 20:27:08 10° SW 20:31:09 49° SSE 20:31:39 46° SE
Unknown 4.4 20:29:13 10° W 20:31:23 23° SSW 20:31:23 23° SSW
Cosmos 1153 Rocket 4.3 20:25:25 10° N 20:31:37 78° ENE 20:37:45 10° SSE
Unknown 3.4 20:27:49 10° WSW 20:31:42 68° SSE 20:32:18 57° ESE
In-Cosmos 22 Rocket 4.4 20:27:00 10° N 20:32:06 43° ENE 20:33:20 37° ESE
Cosmos 1844 Rocket 2.8 20:26:54 10° SW 20:32:35 77° NW 20:38:16 10° NNE
Unknown 3.8 20:28:57 10° SW 20:32:59 52° SSE 20:33:28 49° SE
Unknown 3.8 20:30:23 10° SW 20:34:24 51° SSE 20:34:47 49° SE
Cosmos 1908 3.1 20:31:24 10° S 20:35:19 84° ESE 20:39:15 10° NNE
Unknown 3.8 20:32:04 10° SW 20:36:06 52° SSE 20:36:25 50° SE
Unknown 3.3 20:32:30 10° WSW 20:36:21 72° S 20:36:44 65° SE
Unknown 3.2 20:34:33 10° W 20:38:17 76° S 20:38:33 71° SE
Unknown 3.7 20:35:17 10° WSW 20:39:20 53° SSE 20:39:32 52° SSE
Unknown 3.7 20:37:02 10° WSW 20:41:05 54° SSE 20:41:14 54° SSE
Unknown 3.2 20:38:07 10° W 20:41:24 66° SSW 20:41:24 66° SSW
SPOT 3 Rocket 3.4 20:39:52 31° SSE 20:42:24 74° ENE 20:47:38 10° NNW
Unknown 3.7 20:38:40 10° WSW 20:42:44 55° SSE 20:42:48 54° SSE
Meteor 2-10 4.1 20:38:17 10° SSW 20:43:23 75° WNW 20:48:28 10° NNE
Ariane Rocket 3.8 20:38:37 10° S 20:43:34 51° W 20:48:35 10° NNW
Unknown 3.7 20:40:21 10° WSW 20:44:25 55° SSE 20:44:26 55° SSE
Cosmos 2278 Rocket 2.4 20:40:41 10° S 20:46:02 45° ESE 20:46:34 44° E
Cosmos 2016 Rocket 4.2 20:40:44 10° N 20:46:44 47° ENE 20:48:08 41° ESE
STPSAT 2 (USA 217) 4.5 20:42:16 10° NNW 20:46:52 83° ENE 20:47:51 55° SE
Unknown 3.7 20:43:39 10° WSW 20:47:37 57° SSE 20:47:37 57° SSE
Cosmos 489 Rocket 4.3 20:41:50 10° SSW 20:48:02 78° ESE 20:54:16 10° NNE
SWAS 4.4 20:44:02 10° SW 20:48:19 86° NW 20:50:17 32° NNE
Cosmos 2058 3.0 20:44:17 10° N 20:48:12 57° ENE 20:48:12 57° ENE
Cosmos 2061 Rocket 4.2 20:42:34 10° N 20:48:43 51° ENE 20:50:16 42° ESE
Cosmos 1844 3.9 20:43:12 10° SW 20:48:56 75° NW 20:54:46 10° NNE
Falcon 9 debris 3.5 20:45:37 10° W 20:48:41 59° SW 20:48:41 59° SW
Unknown 3.7 20:45:23 10° WSW 20:49:19 58° S 20:49:19 58° S
Unknown 3.7 20:45:34 10° WSW 20:49:34 60° S 20:49:34 60° S
Unknown 3.5 20:46:48 10° W 20:49:56 62° SW 20:49:56 62° SW
Cosmos 1812 Rocket 3.8 20:51:35 51° NE 20:51:35 51° NE 20:55:13 10° NNE
Unknown 3.7 20:47:09 10° WSW 20:51:05 60° S 20:51:05 60° S
Unknown 3.8 20:50:12 10° WSW 20:53:57 57° S 20:53:57 57° S
USA 234 4.5 20:57:30 23° SSE 20:57:30 23° SSE 21:00:43 10° S
Unknown 3.9 20:53:31 10° WSW 20:57:09 56° SSW 20:57:09 56° SSW
Unknown 3.9 20:55:14 10° WSW 20:58:49 56° SSW 20:58:49 56° SSW
Unknown 3.9 20:56:50 10° WSW 21:00:21 55° SSW 21:00:21 55° SSW
GEOS 3 Rocket 4.5 21:00:00 32° NE 21:01:01 35° NNE 21:05:41 10° NW
Cosmos 1937 Rocket 4.0 20:56:30 10° NNW 21:01:14 41° NE 21:01:14 41° NE
H-2A R/B 2.0 20:59:39 43° SSE 21:01:29 85° ENE 21:06:55 10° NNW
Unknown 4.0 20:58:32 10° WSW 21:02:00 54° SSW 21:02:00 54° SSW
MetOp-A 4.1 21:02:53 57° E 21:03:21 60° ENE 21:08:38 10° N
ATLAS 5 CENTAUR R/B 2.3 21:00:32 10° WSW 21:04:57 56° NNW 21:07:08 31° NNE
USA 186 4.1 21:06:43 18° NNW 21:06:43 18° NNW 21:07:35 10° NNW
Terra 4.1 21:07:45 12° NNE 21:07:45 12° NNE 21:08:34 10° NNE
Unknown 4.2 21:04:58 10° WSW 21:08:10 50° SW 21:08:10 50° SW
Unknown 4.2 21:05:09 10° WSW 21:08:22 50° SW 21:08:22 50° SW
Unknown 4.3 21:06:47 10° WSW 21:09:57 48° SW 21:09:57 48° SW
CZ-2C R/B 3.2 21:10:54 59° SE 21:11:56 72° ENE 21:17:45 10° NNW
Unknown 4.3 21:08:28 10° WSW 21:11:35 47° SW 21:11:35 47° SW
Cosmos 990 Rocket 4.1 21:08:39 10° NNW 21:13:35 59° NE 21:13:35 59° NE
Cosmos 1076 Rocket 3.9 21:09:48 10° NNW 21:14:08 62° W 21:14:49 53° SW
Unknown 4.4 21:10:07 10° WSW 21:13:09 46° SW 21:13:09 46° SW
Gbstr 26 Del rocket 4.4 21:09:21 10° W 21:15:35 57° SSW 21:17:24 45° SSE
Unknown 4.4 21:11:44 10° WSW 21:14:43 44° SW 21:14:43 44° SW
Cosmos 2084 Rocket 3.7 21:11:23 10° NW 21:15:23 70° NNW 21:15:23 70° NNW
Cosmos 1461 3.4 21:12:15 10° NW 21:15:58 52° WSW 21:15:58 52° WSW
Spot 2 Rocket 4.2 21:18:15 41° NNE 21:18:15 41° NNE 21:22:06 10° N
NOSS 3-3 (A) 4.5 21:11:20 10° NW 21:18:38 79° SW 21:21:23 45° SSE
NOSS 3-3 (C) 4.5 21:11:26 10° NW 21:18:43 80° SW 21:21:28 45° SSE
Cosmos 2263 Rocket 4.4 21:14:39 10° WNW 21:18:52 21° NNW 21:23:05 10° NNE
SJ-6B 3.9 21:25:00 41° W 21:25:00 41° W 21:28:34 10° NNW
Lacrosse 5 2.1 21:22:21 10° WNW 21:27:11 61° SW 21:27:11 61° SW
Cosmos 1833 Rocket 3.6 21:24:07 10° NW 21:29:25 44° WSW 21:31:27 31° SSW
Cosmos 1459 Rocket 4.1 21:23:39 10° NNW 21:29:49 73° W 21:32:13 39° S
Resurs 01 Rocket 2.4 21:35:39 47° NNW 21:35:39 47° NNW 21:38:53 10° NNW
ARGOS 3.6 21:34:27 45° SSW 21:35:51 59° WSW 21:41:15 10° NNW
Cosmos 1727 Rocket 4.4 21:30:41 10° SSW 21:36:46 60° WNW 21:42:55 10° N
Cosmos 1802 Rocket 4.1 21:30:40 10° NNW 21:37:08 77° W 21:38:55 50° S
ERS-1 Rocket 4.5 21:42:32 26° NNE 21:42:32 26° NNE 21:45:06 10° N
Cosmos 1898 Rocket 3.6 21:35:26 10° NNW 21:40:09 71° NW 21:40:09 71° NW
SL-08 RB Rocket 4.4 21:42:58 54° WNW 21:42:58 54° WNW 21:46:46 10° NNW
Cosmos 2227 Rocket 4.4 21:40:06 10° NNW 21:43:18 15° N 21:45:05 13° NNE
Cosmos 2082 Rocket 2.9 21:39:31 10° NW 21:44:59 47° WSW 21:45:57 43° SW
ATLAS CENTAUR R/B 3.4 21:43:27 10° NW 21:46:39 26° N 21:46:39 26° N
Cosmos 2297 Rocket 4.3 21:46:19 10° NNW 21:49:36 15° NNE 21:50:58 14° NNE
Cosmos 1864 Rocket 4.4 21:45:29 10° NNW 21:51:36 85° W 21:51:36 85° W
SJ 16-02 3.0 21:52:19 10° NNW 21:54:39 31° NNW 21:54:39 31° NNW
Cosmos 1238 Rocket 4.4 21:51:02 10° N 21:56:28 54° NNE 21:56:28 54° NNE
Cosmos 1725 Rocket 4.1 21:58:36 10° NNW 22:04:49 72° W 22:04:49 72° W
Cosmos 2233 Rocket 4.2 22:06:31 10° N 22:11:42 63° N 22:11:42 63° N
ADEOS Rocket 3.9 22:07:10 10° NNE 22:14:52 64° WNW 22:22:16 10° SW
Cosmos 2278 Rocket 3.4 22:24:42 10° WSW 22:35:56 - NNE 22:28:36 37° W
H-2A R/B 4.3 22:40:17 17° WSW 22:41:38 19° W 22:45:25 10° NW
Terra 4.2 22:46:40 18° N 22:46:40 18° N 22:47:52 10° N
ATLAS 5 CENTAUR R/B 4.0 22:46:17 10° WNW 22:48:41 24° NW 22:48:41 24° NW
Cosmos 2227 Rocket 4.4 23:24:30 10° NNW 23:26:53 21° N 23:26:53 21° N
Cosmos 2297 Rocket 4.4 23:30:34 10° NNW 23:32:46 20° N 23:32:46 20° N
